Terminal Aerodrome Forecast
Issued by NWS Portland, OR

Home | Current Version | Previous Version | Text Only | Print | Product List | Glossary On
Versions: 1 2 3 4 5 6 7 8 9 10 11 12 13 14 15 16 17 18 19 20 21 22 23 24 25 26 27 28 29 30 31 32 33 34 35 36 37 38 39 40 41 42 43 44 45 46 47 48 49 50
000
FTUS46 KPQR 280700 AAB
TAFPDX
TAF AMD
KPDX 280700Z 2807/2906 18012KT P6SM -SHRA BKN018 BKN029 OVC050
     FM281400 16011KT 5SM RA BR SCT015 BKN018 OVC035
     FM282000 19013G22KT P6SM -RA SCT015 BKN025 OVC035
     FM290300 29009KT P6SM -SHRA SCT025 OVC045=

USA.gov is the U.S. government's official web portal to all federal, state and local government web resources and services.